Jefferson, NC

11:51 AM EDT on March 29, 2017 (GMT -0400)
Ashe County

Weather History for KGEV - March, 2014

Change the Weather History Date:

Tuesday, March 4, 2014

  Actual Average Record
Temperature  
Mean Temperature 25 °F -  
Max Temperature 34 °F 53 °F 77 °F (1976)
Min Temperature 16 °F 31 °F 10 °F (2002)
Degree Days  
Heating Degree Days 40    
Moisture  
Dew Point 16 °F    
Average Humidity 75    
Maximum Humidity 95    
Minimum Humidity 47    
Precipitation  
Precipitation 0.00 in - - ()
Sea Level Pressure  
Sea Level Pressure 30.10 in    
Wind  
Wind Speed 1 mph (SE)    
Max Wind Speed 7 mph    
Max Gust Speed -    
Visibility 10 miles    
Events      
Averages and records for this station are not official NWS values.
T = Trace of Precipitation, MM = Missing Value Source: NWS Daily Summary

Daily Weather History Graph

Daily Weather History Graph

Search for Another Location

Airport or City:

Trip Planner

Search our weather history database for the weather conditions in past years. The results will help you decide how hot, cold, wet, or windy it might be!

Date:

Astronomy

Mar. 04, 2014 Rise Set
Actual Time 6:52 AM EST 6:23 PM EST
Civil Twilight 6:26 AM EST 6:48 PM EST
Nautical Twilight 5:56 AM EST 7:18 PM EST
Astronomical Twilight 5:26 AM EST 7:48 PM EST
Moon 8:44 AM EST (3/4) 10:21 PM EST (3/4)
Length of Visible Light 12h 22m
Length of Day
11h 31m
Waxing Crescent, 14% of the Moon is Illuminated
Mar 4
Waxing Crescent
Mar 8
First Quarter
Mar 16
Full
Mar 23
Last Quarter
Mar 30
New

Hourly Weather History & Observations

Time (EST) Temp. Windchill Dew Point Humidity Pressure Visibility Wind Dir Wind Speed Gust Speed Precip Events Conditions
12:15 AM 21.0 °F 16.2 °F 18.1 °F 89% 30.11 in 10.0 mi NE 3.5 mph - N/A   Mostly Cloudy
12:35 AM 21.0 °F - 18.0 °F 88% 30.11 in 10.0 mi Calm Calm - N/A   Overcast
12:55 AM 20.8 °F - 18.0 °F 89% 30.11 in 10.0 mi Calm Calm - N/A   Overcast
1:15 AM 19.9 °F - 17.6 °F 91% 30.11 in 10.0 mi Calm Calm - N/A   Overcast
1:35 AM 19.4 °F - 17.4 °F 92% 30.11 in 10.0 mi Calm Calm - N/A   Overcast
1:55 AM 19.4 °F - 17.4 °F 92% 30.11 in 10.0 mi Calm Calm - N/A   Mostly Cloudy
2:15 AM 18.7 °F - 16.7 °F 92% 30.11 in 10.0 mi Calm Calm - N/A   Scattered Clouds
2:35 AM 18.0 °F 12.7 °F 16.3 °F 93% 30.10 in 10.0 mi ENE 3.5 mph - N/A   Scattered Clouds
2:55 AM 17.6 °F 12.3 °F 16.2 °F 94% 30.09 in 10.0 mi NNE 3.5 mph - N/A   Clear
3:15 AM 17.2 °F 11.9 °F 15.8 °F 94% 30.09 in 10.0 mi ENE 3.5 mph - N/A   Clear
3:35 AM 17.1 °F - 15.8 °F 95% 30.10 in 10.0 mi Calm Calm - N/A   Clear
3:55 AM 17.1 °F 11.7 °F 15.8 °F 95% 30.09 in 10.0 mi ENE 3.5 mph - N/A   Clear
4:15 AM 16.3 °F 10.8 °F 14.9 °F 94% 30.08 in 10.0 mi East 3.5 mph - N/A   Clear
4:35 AM 16.7 °F - 15.4 °F 95% 30.09 in 10.0 mi Calm Calm - N/A   Clear
4:55 AM 16.7 °F - 15.4 °F 95% 30.11 in 10.0 mi Calm Calm - N/A   Clear
5:15 AM 16.2 °F - 14.7 °F 94% 30.11 in 10.0 mi Calm Calm - N/A   Clear
5:35 AM 16.3 °F - 14.7 °F 93% 30.11 in 10.0 mi Calm Calm - N/A   Clear
5:55 AM 16.5 °F - 14.9 °F 93% 30.11 in 10.0 mi Calm Calm - N/A   Scattered Clouds
6:15 AM 16.7 °F - 14.9 °F 93% 30.12 in 10.0 mi Calm Calm - N/A   Overcast
6:35 AM 16.7 °F - 15.3 °F 94% 30.12 in 10.0 mi Calm Calm - N/A   Overcast
6:55 AM 16.7 °F - 15.3 °F 94% 30.12 in 10.0 mi Calm Calm - N/A   Mostly Cloudy
7:15 AM 16.3 °F - 14.5 °F 93% 30.13 in 10.0 mi Calm Calm - N/A   Clear
7:35 AM 16.7 °F - 15.3 °F 94% 30.14 in 10.0 mi Calm Calm - N/A   Clear
7:55 AM 16.7 °F - 15.3 °F 94% 30.15 in 10.0 mi Calm Calm - N/A   Scattered Clouds
8:15 AM 17.4 °F - 15.8 °F 93% 30.15 in 10.0 mi Calm Calm - N/A   Mostly Cloudy
8:35 AM 17.6 °F - 16.2 °F 94% 30.15 in 10.0 mi Calm Calm - N/A   Overcast
8:55 AM 18.9 °F - 17.4 °F 94% 30.15 in 10.0 mi Calm Calm - N/A   Overcast
9:15 AM 18.7 °F - 16.9 °F 93% 30.15 in 10.0 mi Calm Calm - N/A   Overcast
9:35 AM 19.9 °F - 18.1 °F 93% 30.16 in 10.0 mi Calm Calm - N/A   Overcast
9:55 AM 20.1 °F 15.2 °F 18.3 °F 93% 30.15 in 10.0 mi SE 3.5 mph - N/A   Mostly Cloudy
10:15 AM 20.8 °F - 18.7 °F 91% 30.15 in 10.0 mi Calm Calm - N/A   Scattered Clouds
10:35 AM 21.2 °F - 16.2 °F 81% 30.15 in 10.0 mi Calm Calm - N/A   Clear
10:55 AM 22.5 °F - 11.1 °F 62% 30.15 in 10.0 mi Calm Calm - N/A   Clear
11:15 AM 23.5 °F - 8.1 °F 52% 30.15 in 10.0 mi Calm Calm - N/A   Clear
11:35 AM 25.2 °F 20.9 °F 10.8 °F 54% 30.14 in 10.0 mi SE 3.5 mph - N/A   Clear
11:55 AM 26.1 °F 21.9 °F 9.1 °F 49% 30.13 in 10.0 mi SSE 3.5 mph - N/A   Clear
12:15 PM 27.0 °F 20.5 °F 9.0 °F 47% 30.12 in 10.0 mi ESE 5.8 mph - N/A   Clear
12:35 PM 27.9 °F - 11.1 °F 50% 30.12 in 10.0 mi Calm Calm - N/A   Clear
12:55 PM 28.8 °F - 13.5 °F 53% 30.11 in 10.0 mi Calm Calm - N/A   Clear
1:15 PM 30.4 °F 26.9 °F 16.2 °F 56% 30.10 in 10.0 mi SSW 3.5 mph - N/A   Clear
1:35 PM 31.5 °F 28.1 °F 17.2 °F 56% 30.09 in 10.0 mi SE 3.5 mph - N/A   Clear
2:00 PM 32.7 °F 29.6 °F 18.5 °F 56% 30.08 in 10.0 mi East 3.5 mph - N/A   Clear
2:15 PM 32.9 °F 27.5 °F 18.9 °F 56% 30.08 in 10.0 mi SE 5.8 mph - N/A   Clear
2:35 PM 34.0 °F 31.0 °F 19.8 °F 56% 30.07 in 10.0 mi SE 3.5 mph - N/A   Clear
2:55 PM 34.2 °F 28.2 °F 21.0 °F 59% 30.06 in 10.0 mi ESE 6.9 mph - N/A   Clear
3:15 PM 33.6 °F 30.6 °F 21.4 °F 61% 30.06 in 10.0 mi SSE 3.5 mph - N/A   Clear
3:35 PM 32.9 °F 29.8 °F 21.4 °F 63% 30.05 in 10.0 mi SE 3.5 mph - N/A   Clear
3:55 PM 32.7 °F 29.6 °F 22.1 °F 65% 30.06 in 10.0 mi SSE 3.5 mph - N/A   Clear
4:15 PM 32.7 °F - 21.0 °F 62% 30.06 in 10.0 mi Calm Calm - N/A   Clear
4:35 PM 32.4 °F 29.1 °F 21.2 °F 63% 30.06 in 10.0 mi SSE 3.5 mph - N/A   Clear
4:55 PM 32.0 °F 27.5 °F 21.2 °F 64% 30.06 in 10.0 mi SE 4.6 mph - N/A   Clear
5:15 PM 31.5 °F - 20.3 °F 63% 30.06 in 10.0 mi Calm Calm - N/A   Clear
5:35 PM 30.6 °F - 20.3 °F 66% 30.06 in 10.0 mi Calm Calm - N/A   Clear
5:55 PM 30.0 °F 26.5 °F 19.6 °F 65% 30.07 in 10.0 mi SSE 3.5 mph - N/A   Clear
6:15 PM 29.7 °F 26.1 °F 19.4 °F 66% 30.08 in 10.0 mi SSE 3.5 mph - N/A   Clear
6:35 PM 29.1 °F 25.4 °F 18.9 °F 66% 30.10 in 10.0 mi SSE 3.5 mph - N/A   Clear
6:55 PM 28.0 °F - 17.8 °F 65% 30.10 in 10.0 mi Calm Calm - N/A   Clear
7:15 PM 27.3 °F - 16.5 °F 64% 30.11 in 10.0 mi Calm Calm - N/A   Clear
7:35 PM 27.1 °F 23.2 °F 16.2 °F 63% 30.10 in 10.0 mi SSE 3.5 mph - N/A   Clear
7:55 PM 27.0 °F - 14.9 °F 60% 30.10 in 10.0 mi Calm Calm - N/A   Clear
8:15 PM 26.6 °F - 15.6 °F 63% 30.09 in 10.0 mi Calm Calm - N/A   Clear
8:35 PM 26.6 °F - 15.8 °F 64% 30.08 in 10.0 mi Calm Calm - N/A   Clear
8:55 PM 26.4 °F - 16.3 °F 66% 30.09 in 10.0 mi Calm Calm - N/A   Clear
9:15 PM 26.4 °F - 16.9 °F 67% 30.08 in 10.0 mi Calm Calm - N/A   Clear
9:35 PM 26.2 °F - 15.6 °F 64% 30.09 in 10.0 mi Calm Calm - N/A   Clear
9:55 PM 26.2 °F - 14.7 °F 62% 30.09 in 10.0 mi Calm Calm - N/A   Clear
10:15 PM 26.2 °F - 14.5 °F 61% 30.09 in 10.0 mi Calm Calm - N/A   Clear
10:35 PM 26.6 °F - 14.5 °F 60% 30.08 in 10.0 mi Calm Calm - N/A   Clear
10:55 PM 26.8 °F - 16.2 °F 64% 30.08 in 10.0 mi Calm Calm - N/A   Clear
11:15 PM 26.1 °F - 16.2 °F 66% 30.08 in 10.0 mi Calm Calm - N/A   Clear
11:35 PM 26.2 °F - 16.0 °F 65% 30.08 in 10.0 mi Calm Calm - N/A   Clear
11:55 PM 26.6 °F - 16.5 °F 66% 30.07 in 10.0 mi Calm Calm - N/A   Clear